Terminal Aerodrome Forecast
Issued by NWS Midland/Odessa, TX

Home | Current Version | Previous Version | Text Only | Print | Product List | Glossary On
Versions: 1 2 3 4 5 6 7 8 9 10 11 12 13 14 15
502
FTUS44 KMAF 252332
TAFMAF
TAF
KMAF 252332Z 2600/2624 25024G32KT P6SM FEW120 SCT250
     FM260130 26013G21KT P6SM SCT250
     FM260600 30015G25KT P6SM SCT120
     FM261500 33022G28KT P6SM SCT120=

USA.gov is the U.S. government's official web portal to all federal, state and local government web resources and services.